| time (UTC) | temp F | wind direction | speed knots | gust knots | rain 1hr in | rain 24hr in | rain mn in | humidity % | barometer mb |
| 20260504050334 | 48 | 334 | 1.7 | 1.7 | 0.00 | 0.00 | 0.00 | 43 | 960.6 |
| 20260504045831 | 48 | 290 | 3.5 | 7.0 | 0.00 | 0.00 | 0.00 | 43 | 960.8 |
| 20260504045326 | 48 | 312 | 2.6 | 4.3 | 0.00 | 0.00 | 0.00 | 43 | 960.8 |
| 20260504044823 | 48 | 294 | 2.6 | 2.6 | 0.00 | 0.00 | 0.00 | 43 | 960.6 |
| 20260504044321 | 48 | 10 | 2.6 | 2.6 | 0.00 | 0.00 | 0.00 | 43 | 960.8 |
| 20260504043818 | 48 | 34 | 1.7 | 2.6 | 0.00 | 0.00 | 0.00 | 43 | 960.5 |
| 20260504043315 | 48 | 21 | 0.0 | 0.9 | 0.00 | 0.00 | 0.00 | 43 | 960.5 |
| 20260504042812 | 48 | 328 | 2.6 | 2.6 | 0.00 | 0.00 | 0.00 | 42 | 960.6 |
| 20260504042308 | 49 | 313 | 3.5 | 4.3 | 0.00 | 0.00 | 0.00 | 41 | 960.4 |
| 20260504041805 | 49 | 288 | 2.6 | 4.3 | 0.00 | 0.00 | 0.00 | 41 | 960.6 |
| 20260504041301 | 49 | 342 | 2.6 | 2.6 | 0.00 | 0.00 | 0.00 | 41 | 960.3 |
| 20260504040757 | 49 | 13 | 1.7 | 2.6 | 0.00 | 0.00 | 0.00 | 40 | 960.4 |
| 20260504040255 | 50 | 283 | 5.2 | 7.0 | 0.00 | 0.00 | 0.00 | 39 | 960.3 |
| 20260504035750 | 50 | 274 | 2.6 | 4.3 | 0.00 | 0.00 | 0.00 | 39 | 960.1 |
| 20260504035248 | 50 | 299 | 0.9 | 0.9 | 0.00 | 0.00 | 0.00 | 38 | 960.1 |
| 20260504034745 | 50 | 289 | 1.7 | 1.7 | 0.00 | 0.00 | 0.00 | 38 | 960.1 |
| 20260504034242 | 51 | 260 | 1.7 | 1.7 | 0.00 | 0.00 | 0.00 | 37 | 960.0 |
| 20260504033740 | 51 | 6 | 2.6 | 2.6 | 0.00 | 0.00 | 0.00 | 38 | 959.9 |
| 20260504033237 | 51 | 314 | 2.6 | 4.3 | 0.00 | 0.00 | 0.00 | 37 | 959.8 |
| 20260504032734 | 51 | 290 | 2.6 | 2.6 | 0.00 | 0.00 | 0.00 | 37 | 959.9 |
| 20260504032231 | 51 | 306 | 4.3 | 6.1 | 0.00 | 0.00 | 0.00 | 37 | 959.5 |
| 20260504031728 | 51 | 293 | 2.6 | 5.2 | 0.00 | 0.00 | 0.00 | 36 | 959.5 |
| 20260504031226 | 52 | 331 | 3.5 | 4.3 | 0.00 | 0.00 | 0.00 | 36 | 959.4 |
| 20260504030721 | 52 | 291 | 6.1 | 9.6 | 0.00 | 0.00 | 0.00 | 35 | 959.3 |
| 20260504030218 | 52 | 59 | 2.6 | 2.6 | 0.00 | 0.00 | 0.00 | 34 | 959.4 |
| 20260504025715 | 52 | 47 | 4.3 | 6.1 | 0.00 | 0.00 | 0.00 | 34 | 959.3 |
| 20260504025212 | 53 | 301 | 4.3 | 5.2 | 0.00 | 0.00 | 0.00 | 34 | 959.2 |
| 20260504024709 | 53 | 292 | 2.6 | 4.3 | 0.00 | 0.00 | 0.00 | 34 | 959.1 |
| 20260504024205 | 53 | 251 | 4.3 | 7.0 | 0.00 | 0.00 | 0.00 | 34 | 959.3 |
| 20260504023702 | 53 | 59 | 2.6 | 2.6 | 0.00 | 0.00 | 0.00 | 34 | 959.0 |
| 20260504023158 | 54 | 280 | 4.3 | 6.1 | 0.00 | 0.00 | 0.00 | 34 | 958.9 |
| 20260504022654 | 54 | 338 | 4.3 | 6.1 | 0.00 | 0.00 | 0.00 | 35 | 958.9 |
| 20260504022150 | 54 | 292 | 2.6 | 5.2 | 0.00 | 0.00 | 0.00 | 37 | 959.0 |
| 20260504021648 | 54 | 342 | 3.5 | 5.2 | 0.00 | 0.00 | 0.00 | 36 | 958.9 |
| 20260504021145 | 54 | 327 | 2.6 | 2.6 | 0.00 | 0.00 | 0.00 | 37 | 958.9 |
| 20260504020642 | 54 | 315 | 4.3 | 6.1 | 0.00 | 0.00 | 0.00 | 38 | 958.8 |
| 20260504020138 | 54 | 343 | 5.2 | 7.0 | 0.00 | 0.00 | 0.00 | 38 | 958.9 |
| 20260504015635 | 54 | 11 | 1.7 | 1.7 | 0.00 | 0.00 | 0.00 | 40 | 959.0 |
| 20260504015131 | 54 | 354 | 3.5 | 5.2 | 0.00 | 0.00 | 0.00 | 40 | 958.8 |
| 20260504014627 | 54 | 74 | 2.6 | 4.3 | 0.00 | 0.00 | 0.00 | 40 | 958.7 |
| 20260504014124 | 55 | 327 | 1.7 | 2.6 | 0.00 | 0.00 | 0.00 | 40 | 958.6 |
| 20260504013622 | 55 | 318 | 1.7 | 5.2 | 0.00 | 0.00 | 0.00 | 39 | 958.8 |
| 20260504013119 | 55 | 120 | 3.5 | 5.2 | 0.00 | 0.00 | 0.00 | 39 | 958.7 |
| 20260504012616 | 55 | 334 | 2.6 | 4.3 | 0.00 | 0.00 | 0.00 | 39 | 958.7 |
| 20260504012114 | 55 | 5 | 2.6 | 4.3 | 0.00 | 0.00 | 0.00 | 38 | 958.7 |
| 20260504011610 | 56 | 92 | 1.7 | 2.6 | 0.00 | 0.00 | 0.00 | 37 | 958.7 |
| 20260504011107 | 56 | 297 | 4.3 | 8.7 | 0.00 | 0.00 | 0.00 | 35 | 958.4 |
| 20260504010602 | 56 | 315 | 4.3 | 6.1 | 0.00 | 0.00 | 0.00 | 35 | 958.4 |
| 20260504010058 | 57 | 292 | 3.5 | 4.3 | 0.00 | 0.00 | 0.00 | 36 | 958.2 |
| 20260504005555 | 57 | 292 | 4.3 | 5.2 | 0.00 | 0.00 | 0.00 | 35 | 958.4 |
| 20260504005053 | 58 | 331 | 4.3 | 9.6 | 0.00 | 0.00 | 0.00 | 35 | 958.2 |
| 20260504004550 | 57 | 352 | 7.8 | 11.3 | 0.00 | 0.00 | 0.00 | 35 | 958.2 |
| 20260504004047 | 57 | 305 | 2.6 | 2.6 | 0.00 | 0.00 | 0.00 | 36 | 958.3 |
| 20260504003543 | 57 | 284 | 2.6 | 2.6 | 0.00 | 0.00 | 0.00 | 36 | 958.2 |
| 20260504003040 | 57 | 342 | 3.5 | 5.2 | 0.00 | 0.00 | 0.00 | 38 | 958.1 |
| 20260504002537 | 57 | 40 | 4.3 | 8.7 | 0.00 | 0.00 | 0.00 | 38 | 957.9 |
| 20260504002035 | 57 | 309 | 2.6 | 4.3 | 0.00 | 0.00 | 0.00 | 38 | 958.1 |
| 20260504001532 | 58 | 258 | 4.3 | 7.8 | 0.00 | 0.00 | 0.00 | 37 | 958.0 |
| 20260504001028 | 59 | 278 | 2.6 | 2.6 | 0.00 | 0.00 | 0.00 | 38 | 957.9 |
| 20260504000525 | 59 | 352 | 0.9 | 1.7 | 0.00 | 0.00 | 0.00 | 38 | 958.0 |
| 20260504000022 | 58 | 347 | 4.3 | 6.1 | 0.00 | 0.00 | 0.00 | 38 | 958.0 |
| 20260503235520 | 58 | 333 | 4.3 | 7.8 | 0.00 | 0.00 | 0.00 | 38 | 957.9 |
| 20260503235012 | 58 | 288 | 5.2 | 7.0 | 0.00 | 0.00 | 0.00 | 38 | 958.0 |
| 20260503234509 | 58 | 222 | 1.7 | 2.6 | 0.00 | 0.00 | 0.00 | 38 | 957.8 |
| 20260503234008 | 58 | 290 | 4.3 | 6.1 | 0.00 | 0.00 | 0.00 | 38 | 957.7 |
| 20260503233503 | 58 | 326 | 3.5 | 5.2 | 0.00 | 0.00 | 0.00 | 38 | 957.7 |
| 20260503232959 | 58 | 280 | 6.1 | 7.8 | 0.00 | 0.00 | 0.00 | 38 | 957.8 |
| 20260503232457 | 57 | 10 | 0.9 | 1.7 | 0.00 | 0.00 | 0.00 | 39 | 957.6 |
| 20260503231955 | 58 | 302 | 2.6 | 4.3 | 0.00 | 0.00 | 0.00 | 38 | 957.7 |
| 20260503231452 | 58 | 294 | 2.6 | 4.3 | 0.00 | 0.00 | 0.00 | 38 | 957.6 |
| 20260503230948 | 58 | 324 | 1.7 | 2.6 | 0.00 | 0.00 | 0.00 | 38 | 957.6 |
| 20260503230445 | 59 | 352 | 3.5 | 5.2 | 0.00 | 0.00 | 0.00 | 36 | 957.4 |
| 20260503225943 | 59 | 296 | 5.2 | 6.1 | 0.00 | 0.00 | 0.00 | 35 | 957.4 |
| 20260503225439 | 59 | 250 | 6.1 | 8.7 | 0.00 | 0.00 | 0.00 | 35 | 957.4 |
| 20260503224935 | 59 | 346 | 1.7 | 1.7 | 0.00 | 0.00 | 0.00 | 36 | 957.2 |
| 20260503224432 | 59 | 59 | 5.2 | 11.3 | 0.00 | 0.00 | 0.00 | 36 | 957.2 |
| 20260503223930 | 59 | 302 | 4.3 | 7.0 | 0.00 | 0.00 | 0.00 | 36 | 957.1 |
| 20260503223427 | 59 | 358 | 4.3 | 5.2 | 0.00 | 0.00 | 0.00 | 35 | 957.1 |
| 20260503222922 | 60 | 107 | 4.3 | 6.1 | 0.00 | 0.00 | 0.00 | 33 | 957.1 |
| 20260503222421 | 61 | 317 | 4.3 | 5.2 | 0.00 | 0.00 | 0.00 | 33 | 957.0 |
| 20260503221919 | 61 | 262 | 3.5 | 5.2 | 0.00 | 0.00 | 0.00 | 32 | 956.9 |
| 20260503221417 | 60 | 309 | 5.2 | 7.0 | 0.00 | 0.00 | 0.00 | 32 | 956.8 |
| 20260503220914 | 60 | 344 | 3.5 | 6.1 | 0.00 | 0.00 | 0.00 | 33 | 956.8 |
| 20260503220410 | 60 | 321 | 3.5 | 6.1 | 0.00 | 0.00 | 0.00 | 33 | 956.9 |
| 20260503215908 | 60 | 318 | 3.5 | 5.2 | 0.00 | 0.00 | 0.00 | 33 | 957.0 |
| 20260503215404 | 60 | 346 | 0.9 | 1.7 | 0.00 | 0.00 | 0.00 | 33 | 957.0 |
| 20260503214902 | 60 | 309 | 2.6 | 2.6 | 0.00 | 0.00 | 0.00 | 34 | 956.7 |
| 20260503214359 | 60 | 304 | 6.1 | 8.7 | 0.00 | 0.00 | 0.00 | 33 | 956.9 |
| 20260503213856 | 60 | 330 | 7.0 | 7.8 | 0.00 | 0.00 | 0.00 | 33 | 956.8 |
| 20260503213354 | 60 | 286 | 6.1 | 8.7 | 0.00 | 0.00 | 0.00 | 33 | 956.8 |
| 20260503212850 | 60 | 330 | 7.0 | 9.6 | 0.00 | 0.00 | 0.00 | 33 | 956.8 |
| 20260503212349 | 60 | 305 | 7.8 | 12.2 | 0.00 | 0.00 | 0.00 | 33 | 956.9 |
| 20260503211845 | 60 | 299 | 2.6 | 4.3 | 0.00 | 0.00 | 0.00 | 34 | 957.0 |
| 20260503211342 | 60 | 259 | 6.1 | 7.8 | 0.00 | 0.00 | 0.00 | 33 | 956.9 |
| 20260503210837 | 60 | 297 | 5.2 | 7.0 | 0.00 | 0.00 | 0.00 | 33 | 956.9 |
| 20260503210335 | 60 | 353 | 6.1 | 9.6 | 0.00 | 0.00 | 0.00 | 32 | 956.9 |
| 20260503205830 | 60 | 8 | 7.0 | 9.6 | 0.00 | 0.00 | 0.00 | 32 | 956.9 |
| 20260503205326 | 60 | 301 | 3.5 | 4.3 | 0.00 | 0.00 | 0.00 | 33 | 956.9 |
| 20260503204823 | 60 | 277 | 1.7 | 1.7 | 0.00 | 0.00 | 0.00 | 33 | 957.0 |
| 20260503204321 | 60 | 15 | 7.8 | 8.7 | 0.00 | 0.00 | 0.00 | 33 | 957.0 |
| 20260503203818 | 60 | 304 | 7.0 | 15.6 | 0.00 | 0.00 | 0.00 | 33 | 957.1 |
| 20260503203315 | 60 | 329 | 2.6 | 4.3 | 0.00 | 0.00 | 0.00 | 34 | 956.9 |
| 20260503202812 | 60 | 312 | 4.3 | 6.1 | 0.00 | 0.00 | 0.00 | 34 | 956.8 |
| 20260503202310 | 60 | 1 | 2.6 | 4.3 | 0.00 | 0.00 | 0.00 | 34 | 956.8 |
| 20260503201808 | 60 | 299 | 4.3 | 6.1 | 0.00 | 0.00 | 0.00 | 34 | 957.0 |
| 20260503201305 | 60 | 70 | 5.2 | 6.1 | 0.00 | 0.00 | 0.00 | 34 | 957.0 |
| 20260503200802 | 60 | 200 | 4.3 | 7.0 | 0.00 | 0.00 | 0.00 | 34 | 956.8 |
| 20260503200257 | 60 | 285 | 3.5 | 7.0 | 0.00 | 0.00 | 0.00 | 35 | 956.7 |
| 20260503195755 | 60 | 309 | 5.2 | 8.7 | 0.00 | 0.00 | 0.00 | 34 | 956.9 |
| 20260503195251 | 60 | 304 | 7.0 | 8.7 | 0.00 | 0.00 | 0.00 | 33 | 956.7 |
| 20260503194749 | 61 | 331 | 4.3 | 6.1 | 0.00 | 0.00 | 0.00 | 33 | 956.7 |
| 20260503194245 | 61 | 322 | 5.2 | 7.8 | 0.00 | 0.00 | 0.00 | 33 | 956.7 |
| 20260503193741 | 61 | 242 | 5.2 | 6.1 | 0.00 | 0.00 | 0.00 | 32 | 956.8 |
| 20260503193237 | 62 | 334 | 6.1 | 11.3 | 0.00 | 0.00 | 0.00 | 30 | 956.6 |
| 20260503192733 | 62 | 343 | 5.2 | 7.0 | 0.00 | 0.00 | 0.00 | 31 | 956.5 |
| 20260503192228 | 61 | 297 | 6.1 | 7.8 | 0.00 | 0.00 | 0.00 | 32 | 956.6 |
| 20260503191725 | 62 | 289 | 2.6 | 2.6 | 0.00 | 0.00 | 0.00 | 32 | 956.8 |
| 20260503191222 | 62 | 297 | 4.3 | 5.2 | 0.00 | 0.00 | 0.00 | 32 | 956.5 |
| 20260503190720 | 62 | 341 | 7.0 | 11.3 | 0.00 | 0.00 | 0.00 | 32 | 956.5 |
| 20260503190216 | 62 | 235 | 4.3 | 5.2 | 0.00 | 0.00 | 0.00 | 32 | 956.3 |
| 20260503185714 | 62 | 348 | 1.7 | 1.7 | 0.00 | 0.00 | 0.00 | 33 | 956.4 |
| 20260503185209 | 62 | 276 | 6.1 | 8.7 | 0.00 | 0.00 | 0.00 | 31 | 956.6 |
| 20260503184703 | 63 | 292 | 4.3 | 7.0 | 0.00 | 0.00 | 0.00 | 30 | 956.5 |
| 20260503184200 | 62 | 266 | 5.2 | 9.6 | 0.00 | 0.00 | 0.00 | 31 | 956.6 |
| 20260503183656 | 62 | 319 | 7.8 | 12.2 | 0.00 | 0.00 | 0.00 | 31 | 956.6 |
| 20260503183154 | 62 | 296 | 3.5 | 7.0 | 0.00 | 0.00 | 0.00 | 31 | 956.7 |
| 20260503182652 | 63 | 294 | 5.2 | 7.0 | 0.00 | 0.00 | 0.00 | 31 | 956.5 |
| 20260503182150 | 62 | 302 | 5.2 | 7.0 | 0.00 | 0.00 | 0.00 | 33 | 956.5 |
| 20260503181646 | 62 | 356 | 2.6 | 4.3 | 0.00 | 0.00 | 0.00 | 33 | 956.5 |
| 20260503181143 | 62 | 322 | 4.3 | 6.1 | 0.00 | 0.00 | 0.00 | 33 | 956.5 |
| 20260503180640 | 62 | 320 | 6.1 | 7.0 | 0.00 | 0.00 | 0.00 | 32 | 956.6 |
| 20260503180138 | 62 | 272 | 3.5 | 4.3 | 0.00 | 0.00 | 0.00 | 33 | 956.7 |
| 20260503175635 | 62 | 274 | 2.6 | 4.3 | 0.00 | 0.00 | 0.00 | 34 | 956.8 |
| 20260503175132 | 62 | 293 | 7.0 | 8.7 | 0.00 | 0.00 | 0.00 | 33 | 956.9 |
| 20260503174629 | 62 | 343 | 5.2 | 7.0 | 0.00 | 0.00 | 0.00 | 34 | 956.7 |
| 20260503174126 | 62 | 251 | 3.5 | 5.2 | 0.00 | 0.00 | 0.00 | 34 | 956.9 |
| 20260503173621 | 62 | 295 | 6.1 | 8.7 | 0.00 | 0.00 | 0.00 | 34 | 956.6 |
| 20260503173117 | 62 | 40 | 1.7 | 2.6 | 0.00 | 0.00 | 0.00 | 34 | 956.6 |
| 20260503172614 | 62 | 303 | 2.6 | 4.3 | 0.00 | 0.00 | 0.00 | 34 | 956.5 |
| 20260503172112 | 61 | 354 | 4.3 | 5.2 | 0.00 | 0.00 | 0.00 | 35 | 956.5 |
| 20260503171609 | 62 | 319 | 4.3 | 5.2 | 0.00 | 0.00 | 0.00 | 34 | 956.7 |
| 20260503171106 | 63 | 228 | 7.0 | 12.2 | 0.00 | 0.00 | 0.00 | 33 | 956.5 |
| 20260503170603 | 62 | 15 | 4.3 | 7.0 | 0.00 | 0.00 | 0.00 | 33 | 956.7 |
| 20260503150954 | 59 | 287 | 4.3 | 7.0 | 0.00 | 0.00 | 0.00 | 44 | 956.2 |
| 20260503150451 | 58 | 306 | 2.6 | 2.6 | 0.00 | 0.00 | 0.00 | 44 | 956.3 |
| 20260503131344 | 54 | 327 | 1.7 | 1.7 | 0.00 | 0.00 | 0.00 | 47 | 955.6 |
| 20260503130841 | 54 | 162 | 0.9 | 1.7 | 0.00 | 0.00 | 0.00 | 47 | 955.3 |
| 20260503130338 | 53 | 113 | 1.7 | 1.7 | 0.00 | 0.00 | 0.00 | 48 | 955.5 |
| 20260503110733 | 49 | 250 | 0.9 | 0.9 | 0.00 | 0.00 | 0.00 | 57 | 955.4 |
| 20260503110230 | 49 | 244 | 0.9 | 0.9 | 0.00 | 0.00 | 0.00 | 57 | 955.4 |
| 20260503100156 | 50 | 208 | 0.0 | 0.0 | 0.00 | 0.00 | 0.00 | 53 | 956.0 |
| 20260503090115 | 51 | 49 | 0.0 | 0.9 | 0.00 | 0.00 | 0.00 | 48 | 955.9 |
| 20260503081551 | 53 | 203 | 0.9 | 0.9 | 0.00 | 0.00 | 0.00 | 43 | 956.2 |
| 20260503081048 | 54 | 146 | 0.9 | 0.9 | 0.00 | 0.00 | 0.00 | 42 | 956.4 |
| 20260503080544 | 54 | 209 | 0.9 | 0.9 | 0.00 | 0.00 | 0.00 | 41 | 956.4 |
| 20260503072518 | 56 | 28 | 0.0 | 0.0 | 0.00 | 0.00 | 0.00 | 39 | 956.7 |
| 20260503072015 | 56 | 245 | 1.7 | 1.7 | 0.00 | 0.00 | 0.00 | 39 | 956.5 |
| 20260503071512 | 57 | 271 | 2.6 | 4.3 | 0.00 | 0.00 | 0.00 | 38 | 956.5 |
| 20260503071008 | 57 | 195 | 0.9 | 1.7 | 0.00 | 0.00 | 0.00 | 38 | 956.5 |
| 20260503070505 | 57 | 318 | 1.7 | 1.7 | 0.00 | 0.00 | 0.00 | 38 | 956.6 |
| 20260503054923 | 55 | 220 | 0.0 | 0.9 | 0.00 | 0.00 | 0.00 | 48 | 956.2 |
| 20260503054419 | 56 | 30 | 0.0 | 0.0 | 0.00 | 0.00 | 0.00 | 46 | 956.2 |
| 20260503053917 | 56 | 67 | 0.0 | 0.0 | 0.00 | 0.00 | 0.00 | 45 | 956.1 |
| 20260503053415 | 57 | 56 | 0.0 | 0.0 | 0.00 | 0.00 | 0.00 | 44 | 956.1 |
| 20260503052911 | 57 | 45 | 0.0 | 0.0 | 0.00 | 0.00 | 0.00 | 43 | 955.9 |